Regional Weather Roundup
Issued by NWS

Home | Current Version | Previous Version | Text Only | Print | Product List | Glossary Off
Versions: 1 2 3 4 5 6 7 8 9 10 11 12 13 14 15 16 17 18 19 20 21 22 23 24 25 26 27 28 29 30 31 32 33 34 35 36 37 38 39 40 41 42 43 44 45 46 47 48 49 50

000
ASUS43 KDMX 291807
RWRIA

WEATHER ROUNDUP FOR IOWA
NATIONAL WEATHER SERVICE DES MOINES IA
100 PM CDT SAT AUG 29 2015

NOTE: "FAIR" INDICATES FEW OR NO CLOUDS BELOW 12,000 FEET WITH NO
SIGNIFICANT WEATHER AND/OR OBSTRUCTIONS TO VISIBILITY.

* - THESE STATIONS ARE NOT NWS STATIONS...THUS NOT UNDER NWS
QUALITY CONTROL.  THEY ALSO DO NOT REPORT WEATHER SUCH
AS PRECIPITATION OR FOG.

IAZ001>003-012>014-020>022-031>034-043>046-291900-
   NORTHWEST IOWA

CITY           SKY/WX    TMP DP  RH WIND       PRES   REMARKS
CARROLL *      CLOUDY    63  63 100 NE6       30.07F
CHEROKEE *     CLOUDY    64  62  93 CALM      30.08F
DENISON *      CLOUDY    64  63  94 N5        30.06F
LE MARS *      CLOUDY    64  61  88 CALM      30.10S
ORANGE CITY *  CLOUDY    63  61  94 CALM      30.09S
SHELDON *      CLOUDY    64  61  88 CALM      30.07F
SIOUX CITY     CLOUDY    67  59  75 W3        30.08F
6HR MIN TEMP:  61; 6HR MAX TEMP:  68;

SPENCER        PTSUNNY   66  59  78 CALM      30.08F
6HR MIN TEMP:  57; 6HR MAX TEMP:  67;

STORM LAKE *   PTSUNNY   63  61  94 CALM      30.09F
$$

IAZ055>058-069>071-079>083-090>094-291900-
   SOUTHWEST IOWA

CITY           SKY/WX    TMP DP  RH WIND       PRES   REMARKS
ATLANTIC *     CLOUDY    68  63  83 NE8       30.07S
AUDUBON *      CLOUDY    64  61  88 N7        30.09S
CLARINDA *     CLOUDY    66  63  88 N3        30.08S
COUNCIL BLFS *   N/A     64  61  88 N9        30.08F
CRESTON *      CLOUDY    68  64  88 NE8       30.07S
HARLAN  *      CLOUDY    68 -22   2 VRB7      30.10F
LAMONI         CLOUDY    74  66  76 N6        30.04S
6HR MIN TEMP:  65; 6HR MAX TEMP:  74;

RED OAK *      CLOUDY    66  63  88 N6        30.07S
SHENANDOAH *   CLOUDY    64  63  94 NW6       30.08S
$$

IAZ047>049-059>061-072>074-084-291900-
   CENTRAL IOWA

CITY           SKY/WX    TMP DP  RH WIND       PRES   REMARKS
AMES           CLOUDY    69  63  81 NE9       30.04F
6HR MIN TEMP:  62; 6HR MAX TEMP:  69;

ANKENY *       CLOUDY    68  64  88 CALM      30.03F
CHARITON *     CLOUDY    70  64  83 N6G12     30.04S
DES MOINES     CLOUDY    71  63  75 VRB3      30.03F
6HR MIN TEMP:  64; 6HR MAX TEMP:  72;

GRINNELL*      CLOUDY    70  64  83 N6        30.04S
KNOXVILLE *    CLOUDY    70  64  83 N6        30.02F
MARSHALLTOWN   CLOUDY    69  63  81 N8        30.04S
6HR MIN TEMP:  63; 6HR MAX TEMP:  69;

PELLA *        CLOUDY    72  68  89 N6        30.03F
PERRY *        CLOUDY    68  64  88 N5        30.06S
$$

IAZ004>006-015-016-023>025-035-036-291900-
   NORTH CENTRAL IOWA

CITY           SKY/WX    TMP DP  RH WIND       PRES   REMARKS
ALGONA *       PTSUNNY   63  59  88 CALM      30.08S
CLARION *      CLOUDY    68  63  83 NE6       30.06S
ESTHERVILLE    PTSUNNY   65  61  87 CALM      30.07F
6HR MIN TEMP:  56; 6HR MAX TEMP:  66;

FORT DODGE *   CLOUDY    64  59  82 NW5       30.08S
MASON CITY     PTSUNNY   69  63  81 E5        30.07F
6HR MIN TEMP:  59; 6HR MAX TEMP:  69;

FOREST CITY *  CLOUDY    64  61  88 CALM      30.06F
IOWA FALLS *   CLOUDY    68  63  83 NE7       30.06F
$$

IAZ007>011-017>019-026>030-037>042-050>054-066-291900-
   NORTHEAST IOWA

CITY           SKY/WX    TMP DP  RH WIND       PRES   REMARKS
CEDAR RAPIDS   CLOUDY    72  67  84 NE5       30.01S
6HR MIN TEMP:  66; 6HR MAX TEMP:  72;

CHARLES CITY * PTSUNNY   70  64  83 NE8       30.06S
CLINTON *      CLOUDY    72  66  83 E3        30.02F
DECORAH *      CLOUDY    68  63  83 VRB6      30.05S
DUBUQUE        CLOUDY    71  65  81 N7        30.02S
6HR MIN TEMP:  64; 6HR MAX TEMP:  71;

MONTICELLO *   CLOUDY    72  66  83 VRB6      30.01S
OELWEIN *        N/A     70  64  83 NE7       30.04F
WATERLOO       CLOUDY    70  63  78 E7        30.03S
6HR MIN TEMP:  64; 6HR MAX TEMP:  71;

$$

IAZ064-065-067-068-078-291900-
   EAST CENTRAL IOWA

CITY           SKY/WX    TMP DP  RH WIND       PRES   REMARKS
DAVENPORT      CLOUDY    72  67  84 CALM      30.00F
6HR MIN TEMP:  66; 6HR MAX TEMP:  73; 6HR PCP: TRACE;

IOWA CITY      PTSUNNY   74  68  81 CALM      30.01F
6HR MIN TEMP:  67; 6HR MAX TEMP:  75; 6HR PCP:  0.02;

MT. PLEASANT * CLOUDY    78  64  62 CALM      30.00F HX  80
MUSCATINE *    CLOUDY    73  66  78 CALM      30.00F
QUAD CITIES    PTSUNNY   73  67  81 CALM      30.00S HAZE
6HR MIN TEMP:  69; 6HR MAX TEMP:  73; 6HR PCP:  0.01;

$$

IAZ062-063-075>077-085>089-095>099-291900-
   SOUTHEAST IOWA

CITY           SKY/WX    TMP DP  RH WIND       PRES   REMARKS
BURLINGTON     CLOUDY    77  68  73 NW5       30.00F
6HR MIN TEMP:  68; 6HR MAX TEMP:  77;

FAIRFIELD *    CLOUDY    73  68  83 N5        30.01F
FORT MADISON * CLOUDY    75  68  78 CALM      30.01S
KEOKUK *       CLOUDY    75  68  78 CALM      29.99F
OSKALOOSA *    CLOUDY    71  66  85 N5        30.02F
CENTERVILLE *  PTSUNNY   72  68  88 N5        30.04S
OTTUMWA        CLOUDY    74  69  85 N5        29.99F
6HR MIN TEMP:  67; 6HR MAX TEMP:  74;

WASHINGTON *     N/A    N/A N/A N/A MISG        N/A
$$

ABBREVIATIONS USED IN REMARKS
   TC - TEMPERATURES IN CELSIUS
  WCI - WIND CHILL INDEX
   HX - HEAT INDEX
  VSB - VISIBILITY
$$




USA.gov is the U.S. government's official web portal to all federal, state and local government web resources and services.